BREEZE-M DEB, 38572

Orbit data source: Space-Track

BREEZE-M DEB, 38572 is space debris in HEO originally from a launch on Fri, 14 Mar 2008 UTC launched from the Tyuratam Missile And Space Complex (TTMTR). Debris objects in space refer to the collection of defunct objects orbiting the Earth. Examples of debris include non-operational satellites, rocket bodies, and fragments generated from explosions, collisions, or faulty payload assembly.

Loading next visibility...
Identifier
38572, 2008-011T
Orbit
HEO
Country
Flag of CISCIS
Related business
Manufacturer
Unknown
Mission
Spacecraft
Bus & Motor
Unknown
Mass
Unknown
Launch date (UTC)
2008-03-14 (18 years ago)
Launch vehicle
Unknown
Launch site
Tyuratam Missile And Space Complex (TTMTR)
Object type
Payload
Rocket body
Debris
Shape & HBR
Unknown shape, 0.4 m
Radar Cross Section
Medium (>0.1 m² and <1 m²)

Expand to show TLE details & history
Last TLE update: 1 month ago

TLE from 1 month ago
0 BREEZE-M DEB
1 38572U 08011T   26143.52959952  .00000010  00000-0  00000-0 0  9998
2 38572  48.4609 112.9835 6276318 161.2919 240.3152  3.03170948170346
Epoch: 2026-05-23T12:42Z
TLE epoch observation values (Epoch: 2026-05-23T12:42:37.398Z)
Latitude
0.00002°
Longitude
41.17799°
Altitude
23,744.006 km
Speed
2.589 km/s
True Right ascension
07h 31m 54s
True Declination
0° 00' 00"
Sunlit
Object was in daylight at epoch
Visualization orbit readout
Latitude
Unknown
Longitude
Unknown
Altitude
Unknown
Speed
Unknown
Apparent Right ascension
Unknown
Apparent Declination
Unknown
Sunlit
N/A
Visualization observer readout
Local Sidereal Time
01:45:35
Azimuth
Unknown
Elevation
Unknown
Doppler factor
Unknown
Orbital elements
Apogee altitude
26,445.18 km
Perigee altitude
1,131.153 km
Semi-major axis
20,166.303 km
Eccentricity
0.62763
Inclination
48.4609°
RAAN
112.9835°
Arg. of periapsis
161.2919°
True anomaly
198.76597°
Mean anomaly
240.3152°
Eccentric anomaly
218.11753°
Mean motion
0.75789 °/min
Orbital period
475.01 mins
BSTAR
0
Loading maneuver chart data...
Computing Atmospheric mass density...
Loading historical data...
Loading historical data...
Loading historical data...
Loading historical data...
Loading historical data...
Loading historical data...
Loading historical data...

Documentation

Showing up to 5 results
|